Location: Milo
(50.5667°N, 112.8833°W)
Time: 06:54:00
(UTC+00:00)

N. Korean satellite - Pass Details

Date: 09 December 2021
Orbit: 446 x 492 km, 97.3° (Epoch: 18 January)

Event Time Altitude Azimuth Distance (km) Brightness Sun altitude
Rises 00:25:43 0° 189° (S) 2,512 10.7 -8.8°
Reaches altitude 10° 00:27:56 10° 200° (SSW) 1,631 9.9 -9.1°
Maximum altitude 00:31:04 30° 264° (W) 857 8.7 -9.6°
Drops below altitude 10° 00:34:11 10° 327° (NNW) 1,619 9.3 -10.0°
Sets 00:36:24 0° 339° (NNW) 2,491 10.2 -10.3°
